Location: Burgberg
(50.1428°N, 11.0671°E)
Time: 21:15:49
(UTC+00:00)

NOAA 6 - Pass Details

Date: 26 January 2020
Orbit: 773 x 786 km, 98.7° (Epoch: 16 February)

Event Time Altitude Azimuth Distance (km) Brightness Sun altitude
Rises 05:54:06 0° 10° (N) 3,291 7.2 -10.3°
Reaches altitude 10° 05:56:32 10° 3° (N) 2,359 6.4 -10.0°
Maximum altitude 06:01:24 42° 294° (WNW) 1,117 4.4 -9.2°
Drops below altitude 10° 06:06:14 10° 225° (SW) 2,345 6.3 -8.5°
Sets 06:08:39 0° 219° (SW) 3,268 7.1 -8.1°
